DELTA 1 DEB, 20349

Orbit data source: Space-Track

DELTA 1 DEB, 20349 is space debris in LEO originally from a launch on Thu, 29 Jul 1976 UTC launched from the Air Force Western Test Range (AFWTR). Debris objects in space refer to the collection of defunct objects orbiting the Earth. Examples of debris include non-operational satellites, rocket bodies, and fragments generated from explosions, collisions, or faulty payload assembly.

Loading next visibility...
Identifier
20349, 1976-077FR
Orbit
LEO
Country
Flag of USUS
Related business
Manufacturer
Unknown
Mission
Spacecraft
Bus & Motor
Unknown
Mass
Unknown
Launch date (UTC)
1976-07-29 (50 years ago)
Launch vehicle
Unknown
Launch site
Air Force Western Test Range (AFWTR)
Object type
Payload
Rocket body
Debris
Shape & HBR
Unknown shape, 0.1 m
Radar Cross Section
Small (<0.1 m²)

Expand to show TLE details & history
Last TLE update: 8 hours ago

TLE from 8 hours ago
0 DELTA 1 DEB
1 20349U 76077FR  26132.06613272  .00000617  00000-0  11384-1 0  9998
2 20349 102.5723 245.8247 0628899 234.4988 306.8521 11.33804304551689
Epoch: 2026-05-12T01:35Z
TLE epoch observation values (Epoch: 2026-05-12T01:35:13.867Z)
Latitude
4.50082°
Longitude
173.17212°
Altitude
1,700.176 km
Speed
7.148 km/s
True Right ascension
04h 27m 18s
True Declination
4° 28' 38"
Sunlit
Object was in daylight at epoch
Visualization orbit readout
Latitude
Unknown
Longitude
Unknown
Altitude
Unknown
Speed
Unknown
Apparent Right ascension
Unknown
Apparent Declination
Unknown
Sunlit
N/A
Visualization observer readout
Local Sidereal Time
17:45:10
Azimuth
Unknown
Elevation
Unknown
Doppler factor
Unknown
Orbital elements
Apogee altitude
2,515.523 km
Perigee altitude
1,463.069 km
Semi-major axis
8,367.433 km
Eccentricity
0.06289
Inclination
102.5723°
RAAN
245.8247°
Arg. of periapsis
234.4988°
True anomaly
300.81197°
Mean anomaly
306.8521°
Eccentric anomaly
303.85989°
Mean motion
2.83566 °/min
Orbital period
126.95 mins
BSTAR
0.011384
Loading maneuver chart data...
Computing Atmospheric mass density...
Loading historical data...
Loading historical data...
Loading historical data...
Loading historical data...
Loading historical data...
Loading historical data...
Loading historical data...

Documentation

Showing up to 5 results
|